This is the latest recevied weather packets stored in our database for station/object R2BLN-13. If no packets are shown the sender has not sent any weather packets the latest 10 day(s).
| Time | Temp. | Humidity | Pressure | Rain* | Wind** | Luminosity | Snow |
|---|---|---|---|---|---|---|---|
| 1787494861 | 20° C | 48% | 985.4 hPa | - | - | - | - |
| 1787494261 | 20° C | 47% | 985.4 hPa | - | - | - | - |
| 1787493661 | 20° C | 47% | 985.3 hPa | - | - | - | - |
| 1787493061 | 20.56° C | 47% | 985.3 hPa | - | - | - | - |
| 1787492461 | 21.11° C | 46% | 985.1 hPa | - | - | - | - |
| 1787491849 | 21.11° C | 46% | 985 hPa | - | - | - | - |
| 1787491239 | 21.67° C | 44% | 984.9 hPa | - | - | - | - |
| 1787490631 | 21.67° C | 45% | 984.8 hPa | - | - | - | - |
| 1787490031 | 22.22° C | 44% | 984.8 hPa | - | - | - | - |
| 1787489431 | 22.22° C | 43% | 984.7 hPa | - | - | - | - |
| 1787488835 | 22.78° C | 42% | 984.6 hPa | - | - | - | - |
| 1787488231 | 22.78° C | 42% | 984.5 hPa | - | - | - | - |
| 1787487631 | 22.22° C | 42% | 984.5 hPa | - | - | - | - |
| 1787487031 | 23.33° C | 41% | 984.5 hPa | - | - | - | - |
| 1787486431 | 23.33° C | 40% | 984.4 hPa | - | - | - | - |
| 1787485831 | 23.33° C | 42% | 984.3 hPa | - | - | - | - |
| 1787485231 | 23.89° C | 40% | 984.2 hPa | - | - | - | - |
| 1787484631 | 24.44° C | 41% | 984.1 hPa | - | - | - | - |
| 1787484031 | 25° C | 40% | 984.1 hPa | - | - | - | - |
| 1787483431 | 25° C | 39% | 984 hPa | - | - | - | - |
| 1787482831 | 25.56° C | 38% | 984 hPa | - | - | - | - |
| 1787482231 | 26.11° C | 38% | 983.9 hPa | - | - | - | - |
| 1787481631 | 25.56° C | 38% | 983.9 hPa | - | - | - | - |
| 1787481031 | 26.11° C | 39% | 983.8 hPa | - | - | - | - |
| 1787480431 | 27.22° C | 36% | 983.8 hPa | - | - | - | - |
* Rain since midnight (hover to see other rain measurements)
** Current wind speed in m/s (hover to see current wind gust speed)